Regional Weather Roundup
Issued by NWS

Home | Current Version | Previous Version | Text Only | Print | Product List | Glossary Off
Versions: 1 2 3 4 5 6 7 8 9 10 11 12 13 14 15 16 17 18 19 20 21 22 23 24 25 26 27 28 29 30 31 32 33 34 35 36 37 38 39 40 41 42 43 44 45 46 47 48 49 50

989
ASUS45 KPSR 151910
RWRAZ

ARIZONA HOURLY REGIONAL WEATHER ROUNDUP
NATIONAL WEATHER SERVICE PHOENIX AZ
1200 PM MST FRI DEC 15 2017

NOTE: FAIR INDICATES FEW OR NO CLOUDS BELOW 12,000 FEET WITH NO
SIGNIFICANT WEATHER AND/OR OBSTRUCTIONS TO VISIBILITY.

AZZ001>003-036-152000-
NORTHWEST ARIZONA

CITY           SKY/WX    TMP DP  RH WIND       PRES   REMARKS
BULLHEAD CITY  SUNNY     64  18  16 N16       30.21F
KINGMAN        SUNNY     59  10  14 N6        30.25F
$$

AZZ004>008-015-016-018-152000-
NORTH CENTRAL ARIZONA

CITY           SKY/WX    TMP DP  RH WIND       PRES   REMARKS
GRAND CANYON   SUNNY     53  -9   7 SE6       30.31F
WILLIAMS       SUNNY     54 -27   3 CALM      30.28F
PRESCOTT       SUNNY     53  -6   8 CALM      30.27F
FLAGSTAFF      SUNNY     49 -14   7 E7        30.31F
PAYSON         SUNNY     54   1  12 S9        30.26F
PAGE           SUNNY     43  15  32 NW3       30.31F
$$

AZZ009>014-017-152000-
NORTHEAST ARIZONA

CITY           SKY/WX    TMP DP  RH WIND       PRES   REMARKS
WINSLOW        SUNNY     43  10  26 SE6       30.33F
SAINT JOHNS    SUNNY     41  17  38 CALM      30.31F
SHOW LOW       SUNNY     41  12  30 N9        30.32F
$$

AZZ540-542>544-546-548-152000-
GREATER PHOENIX AREA

CITY           SKY/WX    TMP DP  RH WIND       PRES   REMARKS
PHOENIX        SUNNY     69  19  15 VRB6      30.19F
BUCKEYE        SUNNY     66  63  88 E10       30.20F
GLENDALE       SUNNY     68  10  10 CALM      30.22F
LUKE AFB       SUNNY     67   9  10 NE3       30.18F
DEER VALLEY    SUNNY     68   5   8 VRB3      30.19F
SCOTTSDALE     SUNNY     67  14  13 E5        30.21F
MESA-FALCON    SUNNY     68  19  15 SE3       30.20F
CHANDLER       SUNNY     68  19  15 CALM      30.19F
$$

AZZ539-553-152000-
SOUTHWEST MARICOPA COUNTY AND PINAL COUNTY

CITY           SKY/WX    TMP DP  RH WIND       PRES   REMARKS
CASA GRANDE    NOT AVBL
GILA BEND      SUNNY     68  18  14 E12       30.18F
$$

AZZ503-504-507>509-152000-
SOUTHEAST ARIZONA

CITY           SKY/WX    TMP DP  RH WIND       PRES   REMARKS
TUCSON         SUNNY     65  20  17 SE18G25   30.19F
DAVIS-MONTHAN  SUNNY     66  20  17 SE14G21   30.16F
RYAN FIELD     SUNNY     64  19  17 E22G29    30.18F
NOGALES        SUNNY     63  17  17 E6G18     30.18F
SIERRA VISTA   SUNNY     55  16  21 E15G22    30.24F
DOUGLAS        SUNNY     53  20  27 E16G22    30.25F
SAFFORD        SUNNY     55  18  23 SE8       30.27F
$$

AZZ532-152000-
SOUTHWEST ARIZONA

CITY           SKY/WX    TMP DP  RH WIND       PRES   REMARKS
YUMA           SUNNY     72  14  11 NE14      30.17F
$$

CAZ041-043-047-048-061-525>527-560>570-152000-
SOUTHERN CALIFORNIA

CITY           SKY/WX    TMP DP  RH WIND       PRES   REMARKS
DOWNTOWN L.A.  SUNNY     77  14   9 CALM      30.12F
L.A. AIRPORT   SUNNY     78  17  10 CALM      30.13F
SAN DIEGO      SUNNY     73  33  23 NW5       30.14F
BURBANK        SUNNY     76  12   8 W5        30.14F
ONTARIO        MOSUNNY   75   1   5 VRB3      30.16F
RIVERSIDE      SUNNY     74  18  12 W3        30.15F
PALM SPRINGS   SUNNY     74  13   9 CALM      30.19F
EL CENTRO NAS  SUNNY     72  15  11 SW3       30.19F
IMPERIAL       SUNNY     72  20  14 CALM      30.17F
BLYTHE           N/A     67  20  16 NE3       30.20F
NEEDLES        SUNNY     66  18  15 N8        30.23F
$$

NVZ020-UTZ003-152000-
SOUTHERN NEVADA-UTAH

CITY           SKY/WX    TMP DP  RH WIND       PRES   REMARKS
LAS VEGAS      MOSUNNY   57  17  21 NE5       30.24F
SALT LAKE CITY PTSUNNY   40  26  57 NW3       30.27F
$$

NMZ009-TXZ055-152000-
NEW MEXICO-WEST TEXAS

CITY           SKY/WX    TMP DP  RH WIND       PRES   REMARKS
ALBUQUERQUE    MOSUNNY   41  18  39 W3        30.28F
EL PASO        SUNNY     47  25  42 SE6       30.30F
$$


........................KEY........................
SKY/WX - SKY CONDITION/WEATHER
TMP    - TEMPERATURE IN FAHRENHEIT
DP     - DEW POINT IN FAHRENHEIT
RH     - RELATIVE HUMIDITY IN PERCENT
WIND   - DIRECTION AND SPEED IN MILES PER HOUR (MPH)
VRB    - VARIABLE WIND DIRECTION
PRES   - MEAN SEA LEVEL PRESSURE IN INCHES OF MERCURY
         F - FALLING PRESSURE   R - RISING PRESSURE
         S - STEADY PRESSURE
VSB    - VISIBILITY IN MILES
HX     - HEAT INDEX IN FAHRENHEIT
WCI    - WIND CHILL INDEX IN FAHRENHEIT
TC     - TEMPERATURE IN CELSIUS WHICH IS ALSO KNOWN AS
         TEMPERATURE IN CENTIGRADE
AFB    - AIR FORCE BASE
         LUKE AFB IS LUKE AIR FORCE BASE
         DAVIS-MONTHAN IS DAVIS-MONTHAN AIR FORCE BASE
NAS    - NAVAL AIR STATION
         EL CENTRO NAS IS EL CENTRO NAVAL AIR STATION
N/A    - NOT AVAILABLE





USA.gov is the U.S. government's official web portal to all federal, state and local government web resources and services.